Terug naar catalogus

IRIDIUM 47 DEB

ActiefPO
NORAD 40249·DEBRIS·🇺🇸 United States

Gelanceerd Dec 20, 1997 vanaf Vandenberg Space Force Base

Loading…

Volgende Passages (komende 24 uur)

TLE

VersSource: Space-Track

Epoch: Sep 14, 2026, 00:41 UTC

1 40249U 97082J   26257.02896303  .00000737  00000-0  21525-3 0  9993
2 40249  86.3841 273.9134 0002373 101.4220 258.7247 14.42766744627730

Volg IRIDIUM 47 DEB in realtime met AllMySat

Download on the App Store